Volver al catálogo

CZ-6A DEB

ActivoSSO
NORAD 56253·DEBRIS·🇨🇳 China

Lanzado Nov 11, 2022 desde Taiyuan Satellite Launch Center

Loading…

Próximos Pases (próximas 24 horas)

TLE

ActualizadoSource: Space-Track

Época: Sep 14, 2026, 11:27 UTC

1 56253U 22151ABV 26257.47729164  .00001381  00000-0  65397-3 0  9990
2 56253  98.8138 271.5238 0030846  45.3782 314.9903 14.21018626186485

Sigue CZ-6A DEB en tiempo real con AllMySat

Download on the App Store